This is the latest recevied weather packets stored in our database for station/object CE7LGA-10. If no packets are shown the sender has not sent any weather packets the latest 10 day(s).
| Time | Temp. | Humidity | Pressure | Rain* | Wind** | Luminosity | Snow |
|---|---|---|---|---|---|---|---|
| 1787801905 | 17.22° C | 59% | 995 hPa | - | - | - | - |
| 1787801005 | 18.89° C | 58% | 995.1 hPa | - | - | - | - |
| 1787800105 | 18.89° C | 58% | 994.9 hPa | - | - | - | - |
| 1787799205 | 18.89° C | 57% | 994.7 hPa | - | - | - | - |
| 1787798305 | 18.89° C | 57% | 994.4 hPa | - | - | - | - |
| 1787797405 | 19.44° C | 58% | 994.1 hPa | - | - | - | - |
| 1787796504 | 19.44° C | 60% | 994 hPa | - | - | - | - |
| 1787795604 | 19.44° C | 59% | 994 hPa | - | - | - | - |
| 1787794704 | 18.89° C | 60% | 994.1 hPa | - | - | - | - |
| 1787793803 | 20° C | 60% | 993.7 hPa | - | - | - | - |
| 1787792903 | 20° C | 60% | 993.4 hPa | - | - | - | - |
| 1787792003 | 20° C | 60% | 993.2 hPa | - | - | - | - |
| 1787791103 | 20° C | 61% | 993 hPa | - | - | - | - |
| 1787790203 | 20° C | 60% | 992.9 hPa | - | - | - | - |
| 1787789303 | 20° C | 61% | 992.6 hPa | - | - | - | - |
| 1787788403 | 20° C | 64% | 992.3 hPa | - | - | - | - |
| 1787787503 | 19.44° C | 63% | 991.9 hPa | - | - | - | - |
| 1787786603 | 19.44° C | 64% | 991.4 hPa | - | - | - | - |
| 1787785703 | 19.44° C | 66% | 991.2 hPa | - | - | - | - |
| 1787784802 | 20° C | 65% | 990.8 hPa | - | - | - | - |
| 1787783904 | 19.44° C | 66% | 990.5 hPa | - | - | - | - |
| 1787783004 | 18.33° C | 69% | 990 hPa | - | - | - | - |
| 1787782103 | 16.11° C | 72% | 989.7 hPa | - | - | - | - |
| 1787781203 | 14.44° C | 71% | 989.5 hPa | - | - | - | - |
| 1787780303 | 13.89° C | 71% | 989.3 hPa | - | - | - | - |
* Rain since midnight (hover to see other rain measurements)
** Current wind speed in m/s (hover to see current wind gust speed)